Time,TemperatureF,DewpointF,PressureIn,WindDirection,WindDirectionDegrees,WindSpeedMPH,WindSpeedGustMPH,Humidity,HourlyPrecipIn,Conditions,Clouds,dailyrainin,SoftwareType,DateUTC
2013-11-30 00:02:00,34.6,26.7,29.98,ENE,68,0.0,0.0,73,0.00,,,0.00,WUHU216HW,2013-11-30 07:02:00,
2013-11-30 00:07:00,34.4,26.6,29.98,SE,135,0.0,0.0,73,0.00,,,0.00,WUHU216HW,2013-11-30 07:07:00,
2013-11-30 00:12:00,34.2,26.0,29.99,SE,135,0.0,0.0,72,0.00,,,0.00,WUHU216HW,2013-11-30 07:12:00,
2013-11-30 00:17:00,34.2,26.4,29.99,SE,135,0.0,0.0,73,0.00,,,0.00,WUHU216HW,2013-11-30 07:17:00,
2013-11-30 00:22:00,34.0,25.8,29.99,SE,135,0.0,0.0,72,0.00,,,0.00,WUHU216HW,2013-11-30 07:22:00,
2013-11-30 00:27:00,34.0,25.8,29.98,ENE,68,0.0,0.0,72,0.00,,,0.00,WUHU216HW,2013-11-30 07:27:00,
2013-11-30 00:32:00,33.8,26.0,29.98,ENE,68,0.0,0.0,73,0.00,,,0.00,WUHU216HW,2013-11-30 07:32:00,
2013-11-30 00:37:00,33.7,25.8,29.98,ENE,68,0.0,0.0,73,0.00,,,0.00,WUHU216HW,2013-11-30 07:37:00,
2013-11-30 00:42:00,33.5,25.7,29.98,ENE,68,0.0,0.0,73,0.00,,,0.00,WUHU216HW,2013-11-30 07:42:00,
2013-11-30 00:47:00,33.5,25.7,29.98,ENE,68,0.0,0.0,73,0.00,,,0.00,WUHU216HW,2013-11-30 07:47:00,
2013-11-30 00:52:00,33.3,25.5,29.98,NE,45,0.0,0.0,73,0.00,,,0.00,WUHU216HW,2013-11-30 07:52:00,
2013-11-30 00:57:00,33.3,25.5,29.98,NE,45,0.0,0.0,73,0.00,,,0.00,WUHU216HW,2013-11-30 07:57:00,
2013-11-30 01:02:00,33.1,25.4,29.98,NE,45,0.0,0.0,73,0.00,,,0.00,WUHU216HW,2013-11-30 08:02:00,
2013-11-30 01:07:00,32.8,25.4,29.98,SE,135,0.0,0.0,74,0.00,,,0.00,WUHU216HW,2013-11-30 08:07:00,
2013-11-30 01:12:00,32.8,25.4,29.98,SSE,158,0.0,0.0,74,0.00,,,0.00,WUHU216HW,2013-11-30 08:12:00,
2013-11-30 01:17:00,32.8,25.4,29.98,SSE,158,0.0,0.0,74,0.00,,,0.00,WUHU216HW,2013-11-30 08:17:00,
2013-11-30 01:22:00,32.8,25.7,29.98,South,180,0.0,0.0,75,0.00,,,0.00,WUHU216HW,2013-11-30 08:22:00,
2013-11-30 01:27:00,32.8,25.4,29.98,South,180,0.0,0.0,74,0.00,,,0.00,WUHU216HW,2013-11-30 08:27:00,
2013-11-30 01:32:00,32.6,25.5,29.98,South,180,0.0,0.0,75,0.00,,,0.00,WUHU216HW,2013-11-30 08:32:00,
2013-11-30 01:37:00,32.4,25.4,29.98,SSW,203,0.0,0.0,75,0.00,,,0.00,WUHU216HW,2013-11-30 08:37:00,
2013-11-30 01:42:00,32.4,25.4,29.98,SSW,203,0.0,0.0,75,0.00,,,0.00,WUHU216HW,2013-11-30 08:42:00,
2013-11-30 01:47:00,32.2,25.2,29.98,SW,225,0.0,0.0,75,0.00,,,0.00,WUHU216HW,2013-11-30 08:47:00,
2013-11-30 01:52:00,32.2,25.2,29.98,WSW,248,0.0,1.0,75,0.00,,,0.00,WUHU216HW,2013-11-30 08:52:00,
2013-11-30 01:57:00,32.2,25.2,29.98,WNW,293,0.0,1.0,75,0.00,,,0.00,WUHU216HW,2013-11-30 08:57:00,
2013-11-30 02:02:00,32.2,25.5,29.98,NW,315,0.0,2.0,76,0.00,,,0.00,WUHU216HW,2013-11-30 09:02:00,
2013-11-30 02:07:00,32.2,25.5,29.98,NW,315,1.0,2.0,76,0.00,,,0.00,WUHU216HW,2013-11-30 09:07:00,
2013-11-30 02:12:00,32.4,25.7,29.98,NW,315,2.0,3.0,76,0.00,,,0.00,WUHU216HW,2013-11-30 09:12:00,
2013-11-30 02:17:00,32.6,25.8,29.98,NW,315,1.0,3.0,76,0.00,,,0.00,WUHU216HW,2013-11-30 09:17:00,
2013-11-30 02:22:00,32.6,26.2,29.98,NW,315,0.0,3.0,77,0.00,,,0.00,WUHU216HW,2013-11-30 09:22:00,
2013-11-30 02:27:00,32.8,26.0,29.98,NNW,338,3.0,3.0,76,0.00,,,0.00,WUHU216HW,2013-11-30 09:27:00,
2013-11-30 02:32:00,32.8,26.0,29.98,NW,315,0.0,3.0,76,0.00,,,0.00,WUHU216HW,2013-11-30 09:32:00,
2013-11-30 02:37:00,32.8,26.0,29.99,NW,315,0.0,3.0,76,0.00,,,0.00,WUHU216HW,2013-11-30 09:37:00,
2013-11-30 02:42:00,32.8,26.0,29.99,NW,315,0.0,2.0,76,0.00,,,0.00,WUHU216HW,2013-11-30 09:42:00,
2013-11-30 02:47:00,32.8,26.0,29.99,NW,315,0.0,2.0,76,0.00,,,0.00,WUHU216HW,2013-11-30 09:47:00,
2013-11-30 02:52:00,32.8,26.0,29.99,NW,315,1.0,2.0,76,0.00,,,0.00,WUHU216HW,2013-11-30 09:52:00,
2013-11-30 02:57:00,32.8,26.3,29.99,NW,315,3.0,3.0,77,0.00,,,0.00,WUHU216HW,2013-11-30 09:57:00,
2013-11-30 03:02:00,32.8,26.3,29.99,NNW,338,2.0,3.0,77,0.00,,,0.00,WUHU216HW,2013-11-30 10:02:00,
2013-11-30 03:07:00,32.9,26.8,29.99,NW,315,0.0,3.0,78,0.00,,,0.00,WUHU216HW,2013-11-30 10:07:00,
2013-11-30 03:12:00,33.1,26.6,29.99,NNE,23,0.0,2.0,77,0.00,,,0.00,WUHU216HW,2013-11-30 10:12:00,
2013-11-30 03:17:00,32.9,26.5,29.99,NNE,23,0.0,1.0,77,0.00,,,0.00,WUHU216HW,2013-11-30 10:17:00,
2013-11-30 03:22:00,32.9,26.2,29.99,NNE,23,0.0,0.0,76,0.00,,,0.00,WUHU216HW,2013-11-30 10:22:00,
2013-11-30 03:27:00,32.8,26.0,29.99,NNW,338,0.0,0.0,76,0.00,,,0.00,WUHU216HW,2013-11-30 10:27:00,
2013-11-30 03:32:00,32.8,26.0,29.99,NW,315,0.0,0.0,76,0.00,,,0.00,WUHU216HW,2013-11-30 10:32:00,
2013-11-30 03:37:00,32.4,26.0,29.99,NW,315,0.0,0.0,77,0.00,,,0.00,WUHU216HW,2013-11-30 10:37:00,
2013-11-30 03:42:00,32.0,25.7,29.99,East,90,0.0,0.0,77,0.00,,,0.00,WUHU216HW,2013-11-30 10:42:00,
2013-11-30 03:47:00,32.0,25.7,29.99,ESE,113,0.0,0.0,77,0.00,,,0.00,WUHU216HW,2013-11-30 10:47:00,
2013-11-30 03:52:00,31.7,25.3,29.98,North,0,0.0,0.0,77,0.00,,,0.00,WUHU216HW,2013-11-30 10:52:00,
2013-11-30 03:57:00,31.7,25.7,29.98,NW,315,1.0,1.0,78,0.00,,,0.00,WUHU216HW,2013-11-30 10:57:00,
2013-11-30 04:02:00,31.9,25.8,29.98,NW,315,0.0,1.0,78,0.00,,,0.00,WUHU216HW,2013-11-30 11:02:00,
2013-11-30 04:07:00,32.0,26.0,29.98,NW,315,1.0,2.0,78,0.00,,,0.00,WUHU216HW,2013-11-30 11:07:00,
2013-11-30 04:12:00,32.0,26.0,29.98,NNW,338,0.0,2.0,78,0.00,,,0.00,WUHU216HW,2013-11-30 11:12:00,
2013-11-30 04:17:00,32.0,26.6,29.99,SE,135,0.0,2.0,80,0.00,,,0.00,WUHU216HW,2013-11-30 11:17:00,
2013-11-30 04:22:00,32.0,26.3,29.99,NW,315,0.0,1.0,79,0.00,,,0.00,WUHU216HW,2013-11-30 11:22:00,
2013-11-30 04:27:00,32.0,26.3,29.99,NNW,338,0.0,1.0,79,0.00,,,0.00,WUHU216HW,2013-11-30 11:27:00,
2013-11-30 04:32:00,32.2,26.8,29.99,NE,45,0.0,2.0,80,0.00,,,0.00,WUHU216HW,2013-11-30 11:32:00,
2013-11-30 04:37:00,32.2,26.5,29.99,North,0,0.0,2.0,79,0.00,,,0.00,WUHU216HW,2013-11-30 11:37:00,
2013-11-30 04:42:00,32.2,26.5,29.99,North,0,0.0,0.0,79,0.00,,,0.00,WUHU216HW,2013-11-30 11:42:00,
2013-11-30 04:47:00,32.0,26.6,29.99,NNW,338,0.0,0.0,80,0.00,,,0.00,WUHU216HW,2013-11-30 11:47:00,
2013-11-30 04:52:00,32.0,26.0,29.99,NW,315,0.0,1.0,78,0.00,,,0.00,WUHU216HW,2013-11-30 11:52:00,
2013-11-30 04:57:00,31.9,25.8,29.99,NNW,338,1.0,2.0,78,0.00,,,0.00,WUHU216HW,2013-11-30 11:57:00,
2013-11-30 05:02:00,32.0,26.3,29.99,NNW,338,4.0,4.0,79,0.00,,,0.00,WUHU216HW,2013-11-30 12:02:00,
2013-11-30 05:07:00,32.2,26.8,29.99,NW,315,2.0,4.0,80,0.00,,,0.00,WUHU216HW,2013-11-30 12:07:00,
2013-11-30 05:12:00,32.2,26.5,30.00,NW,315,1.0,4.0,79,0.00,,,0.00,WUHU216HW,2013-11-30 12:12:00,
2013-11-30 05:17:00,32.4,26.6,30.00,NW,315,1.0,3.0,79,0.00,,,0.00,WUHU216HW,2013-11-30 12:17:00,
2013-11-30 05:22:00,32.2,26.5,30.00,NW,315,2.0,4.0,79,0.00,,,0.00,WUHU216HW,2013-11-30 12:22:00,
2013-11-30 05:27:00,32.0,26.3,30.00,NNW,338,1.0,4.0,79,0.00,,,0.00,WUHU216HW,2013-11-30 12:27:00,
2013-11-30 05:32:00,32.2,26.5,30.00,NNE,23,1.0,4.0,79,0.00,,,0.00,WUHU216HW,2013-11-30 12:32:00,
2013-11-30 05:37:00,32.2,26.5,30.00,NNW,338,2.0,3.0,79,0.00,,,0.00,WUHU216HW,2013-11-30 12:37:00,
2013-11-30 05:42:00,32.2,26.8,30.00,NW,315,1.0,3.0,80,0.00,,,0.00,WUHU216HW,2013-11-30 12:42:00,
2013-11-30 05:47:00,32.4,27.0,29.99,North,0,0.0,3.0,80,0.00,,,0.00,WUHU216HW,2013-11-30 12:47:00,
2013-11-30 05:52:00,32.4,26.6,29.99,North,0,0.0,2.0,79,0.00,,,0.00,WUHU216HW,2013-11-30 12:52:00,
2013-11-30 05:57:00,32.4,27.0,30.00,NNW,338,0.0,2.0,80,0.00,,,0.00,WUHU216HW,2013-11-30 12:57:00,
2013-11-30 06:02:00,32.4,26.6,30.00,NNW,338,0.0,1.0,79,0.00,,,0.00,WUHU216HW,2013-11-30 13:02:00,
2013-11-30 06:07:00,32.4,26.6,30.00,North,0,0.0,1.0,79,0.00,,,0.00,WUHU216HW,2013-11-30 13:07:00,
2013-11-30 06:12:00,32.2,26.5,30.00,NNW,338,1.0,3.0,79,0.00,,,0.00,WUHU216HW,2013-11-30 13:12:00,
2013-11-30 06:17:00,32.6,27.1,30.00,NNW,338,1.0,3.0,80,0.00,,,0.00,WUHU216HW,2013-11-30 13:17:00,
2013-11-30 06:22:00,32.8,27.0,30.00,NNW,338,1.0,3.0,79,0.00,,,0.00,WUHU216HW,2013-11-30 13:22:00,
2013-11-30 06:27:00,32.9,27.1,30.01,NNW,338,0.0,3.0,79,0.00,,,0.00,WUHU216HW,2013-11-30 13:27:00,
2013-11-30 06:32:00,33.1,27.0,30.01,NW,315,2.0,3.0,78,0.00,,,0.00,WUHU216HW,2013-11-30 13:32:00,
2013-11-30 06:37:00,33.1,27.0,30.01,NW,315,1.0,3.0,78,0.00,,,0.00,WUHU216HW,2013-11-30 13:37:00,
2013-11-30 06:42:00,33.3,27.1,30.01,NNW,338,2.0,3.0,78,0.00,,,0.00,WUHU216HW,2013-11-30 13:42:00,
2013-11-30 06:47:00,33.3,26.8,30.01,NNE,23,2.0,4.0,77,0.00,,,0.00,WUHU216HW,2013-11-30 13:47:00,
2013-11-30 06:52:00,33.5,27.0,30.01,NE,45,1.0,4.0,77,0.00,,,0.00,WUHU216HW,2013-11-30 13:52:00,
2013-11-30 06:57:00,33.5,26.6,30.01,North,0,1.0,3.0,76,0.00,,,0.00,WUHU216HW,2013-11-30 13:57:00,
2013-11-30 07:02:00,33.5,26.6,30.01,North,0,0.0,3.0,76,0.00,,,0.00,WUHU216HW,2013-11-30 14:02:00,
2013-11-30 07:07:00,33.3,26.5,30.01,North,0,0.0,2.0,76,0.00,,,0.00,WUHU216HW,2013-11-30 14:07:00,
2013-11-30 07:12:00,33.3,26.5,30.01,NW,315,1.0,2.0,76,0.00,,,0.00,WUHU216HW,2013-11-30 14:12:00,
2013-11-30 07:17:00,33.1,26.3,30.02,WNW,293,1.0,1.0,76,0.00,,,0.00,WUHU216HW,2013-11-30 14:17:00,
2013-11-30 07:22:00,32.9,26.2,30.02,NW,315,0.0,2.0,76,0.00,,,0.00,WUHU216HW,2013-11-30 14:22:00,
2013-11-30 07:27:00,32.8,26.0,30.02,NNW,338,0.0,2.0,76,0.00,,,0.00,WUHU216HW,2013-11-30 14:27:00,
2013-11-30 07:32:00,32.8,26.0,30.02,North,0,0.0,1.0,76,0.00,,,0.00,WUHU216HW,2013-11-30 14:32:00,
2013-11-30 07:37:00,32.6,25.8,30.02,NNW,338,0.0,0.0,76,0.00,,,0.00,WUHU216HW,2013-11-30 14:37:00,
2013-11-30 07:42:00,32.8,26.3,30.02,North,0,0.0,2.0,77,0.00,,,0.00,WUHU216HW,2013-11-30 14:42:00,
2013-11-30 07:47:00,33.1,26.6,30.02,NNW,338,0.0,2.0,77,0.00,,,0.00,WUHU216HW,2013-11-30 14:47:00,
2013-11-30 07:52:00,33.7,26.8,30.02,NNW,338,1.0,2.0,76,0.00,,,0.00,WUHU216HW,2013-11-30 14:52:00,
2013-11-30 07:57:00,34.2,27.4,30.02,NW,315,0.0,2.0,76,0.00,,,0.00,WUHU216HW,2013-11-30 14:57:00,
2013-11-30 08:02:00,34.2,27.0,30.02,NNW,338,1.0,1.0,75,0.00,,,0.00,WUHU216HW,2013-11-30 15:02:00,
2013-11-30 08:07:00,34.6,27.0,30.02,NW,315,0.0,2.0,74,0.00,,,0.00,WUHU216HW,2013-11-30 15:07:00,
2013-11-30 08:12:00,34.9,27.1,30.02,NW,315,1.0,2.0,73,0.00,,,0.00,WUHU216HW,2013-11-30 15:12:00,
2013-11-30 08:17:00,35.3,27.5,30.02,NE,45,2.0,2.0,73,0.00,,,0.00,WUHU216HW,2013-11-30 15:17:00,
2013-11-30 08:22:00,36.9,29.3,30.02,West,270,2.0,3.0,74,0.00,,,0.00,WUHU216HW,2013-11-30 15:22:00,
2013-11-30 08:27:00,39.4,31.8,30.02,NNW,338,3.0,4.0,74,0.00,,,0.00,WUHU216HW,2013-11-30 15:27:00,
2013-11-30 08:32:00,41.4,32.8,30.02,NW,315,2.0,4.0,71,0.00,,,0.00,WUHU216HW,2013-11-30 15:32:00,
2013-11-30 08:37:00,42.8,34.2,30.02,NNW,338,3.0,4.0,71,0.00,,,0.00,WUHU216HW,2013-11-30 15:37:00,
2013-11-30 08:42:00,43.4,32.8,30.03,NW,315,0.0,4.0,66,0.00,,,0.00,WUHU216HW,2013-11-30 15:42:00,
2013-11-30 08:47:00,42.7,30.2,30.03,North,0,5.0,5.0,61,0.00,,,0.00,WUHU216HW,2013-11-30 15:47:00,
2013-11-30 08:52:00,41.0,28.3,30.02,NNE,23,5.0,6.0,60,0.00,,,0.00,WUHU216HW,2013-11-30 15:52:00,
2013-11-30 08:57:00,40.5,28.4,30.02,NW,315,3.0,6.0,62,0.00,,,0.00,WUHU216HW,2013-11-30 15:57:00,
2013-11-30 09:02:00,40.7,28.3,30.02,NNW,338,4.0,5.0,61,0.00,,,0.00,WUHU216HW,2013-11-30 16:02:00,
2013-11-30 09:07:00,41.2,28.8,30.02,NW,315,3.0,6.0,61,0.00,,,0.00,WUHU216HW,2013-11-30 16:07:00,
2013-11-30 09:12:00,41.6,29.2,30.02,NNW,338,3.0,6.0,61,0.00,,,0.00,WUHU216HW,2013-11-30 16:12:00,
2013-11-30 09:17:00,42.1,29.3,30.02,NW,315,3.0,5.0,60,0.00,,,0.00,WUHU216HW,2013-11-30 16:17:00,
2013-11-30 09:22:00,42.5,29.5,30.02,NW,315,7.0,7.0,60,0.00,,,0.00,WUHU216HW,2013-11-30 16:22:00,
2013-11-30 09:27:00,42.8,29.4,30.02,NNE,23,5.0,7.0,59,0.00,,,0.00,WUHU216HW,2013-11-30 16:27:00,
2013-11-30 09:32:00,42.8,28.6,30.02,NNW,338,5.0,7.0,57,0.00,,,0.00,WUHU216HW,2013-11-30 16:32:00,
2013-11-30 09:37:00,42.7,28.9,30.02,NNE,23,3.0,8.0,58,0.00,,,0.00,WUHU216HW,2013-11-30 16:37:00,
2013-11-30 09:42:00,42.7,28.9,30.02,ENE,68,1.0,8.0,58,0.00,,,0.00,WUHU216HW,2013-11-30 16:42:00,
2013-11-30 09:47:00,42.8,29.4,30.02,NW,315,4.0,7.0,59,0.00,,,0.00,WUHU216HW,2013-11-30 16:47:00,
2013-11-30 09:52:00,43.6,29.3,30.02,NNW,338,3.0,5.0,57,0.00,,,0.00,WUHU216HW,2013-11-30 16:52:00,
2013-11-30 09:57:00,44.3,30.4,30.02,WNW,293,3.0,8.0,58,0.00,,,0.00,WUHU216HW,2013-11-30 16:57:00,
2013-11-30 10:02:00,45.2,30.8,30.02,North,0,1.0,8.0,57,0.00,,,0.00,WUHU216HW,2013-11-30 17:02:00,
2013-11-30 10:07:00,44.8,29.2,30.02,North,0,2.0,6.0,54,0.00,,,0.00,WUHU216HW,2013-11-30 17:07:00,
2013-11-30 10:12:00,44.6,29.9,30.02,NW,315,5.0,5.0,56,0.00,,,0.00,WUHU216HW,2013-11-30 17:12:00,
2013-11-30 10:17:00,44.8,29.2,30.02,NW,315,3.0,6.0,54,0.00,,,0.00,WUHU216HW,2013-11-30 17:17:00,
2013-11-30 10:22:00,44.8,29.6,30.02,WNW,293,3.0,6.0,55,0.00,,,0.00,WUHU216HW,2013-11-30 17:22:00,
2013-11-30 10:27:00,45.0,30.3,30.02,WNW,293,4.0,5.0,56,0.00,,,0.00,WUHU216HW,2013-11-30 17:27:00,
2013-11-30 10:32:00,45.5,31.1,30.02,NNW,338,5.0,5.0,57,0.00,,,0.00,WUHU216HW,2013-11-30 17:32:00,
2013-11-30 10:37:00,46.3,31.3,30.02,NW,315,4.0,5.0,56,0.00,,,0.00,WUHU216HW,2013-11-30 17:37:00,
2013-11-30 10:42:00,46.6,31.2,30.02,West,270,2.0,5.0,55,0.00,,,0.00,WUHU216HW,2013-11-30 17:42:00,
2013-11-30 10:47:00,47.5,32.0,30.02,West,270,3.0,4.0,55,0.00,,,0.00,WUHU216HW,2013-11-30 17:47:00,
2013-11-30 10:52:00,47.9,32.0,30.02,WSW,248,3.0,5.0,54,0.00,,,0.00,WUHU216HW,2013-11-30 17:52:00,
2013-11-30 10:57:00,48.6,32.7,30.02,NNW,338,1.0,5.0,54,0.00,,,0.00,WUHU216HW,2013-11-30 17:57:00,
2013-11-30 11:02:00,48.6,32.7,30.02,NNW,338,2.0,5.0,54,0.00,,,0.00,WUHU216HW,2013-11-30 18:02:00,
2013-11-30 11:07:00,49.0,32.9,30.01,NNW,338,3.0,4.0,54,0.00,,,0.00,WUHU216HW,2013-11-30 18:07:00,
2013-11-30 11:12:00,49.3,33.3,30.00,NNW,338,1.0,4.0,54,0.00,,,0.00,WUHU216HW,2013-11-30 18:12:00,
2013-11-30 11:17:00,50.0,33.6,30.00,West,270,3.0,3.0,53,0.00,,,0.00,WUHU216HW,2013-11-30 18:17:00,
2013-11-30 11:22:00,50.2,32.4,30.00,NE,45,0.0,3.0,50,0.00,,,0.00,WUHU216HW,2013-11-30 18:22:00,
2013-11-30 11:27:00,49.9,32.0,29.99,West,270,0.0,3.0,50,0.00,,,0.00,WUHU216HW,2013-11-30 18:27:00,
2013-11-30 11:32:00,50.0,32.7,29.99,NNW,338,3.0,3.0,51,0.00,,,0.00,WUHU216HW,2013-11-30 18:32:00,
2013-11-30 11:37:00,50.4,33.0,29.98,NW,315,2.0,3.0,51,0.00,,,0.00,WUHU216HW,2013-11-30 18:37:00,
2013-11-30 11:42:00,50.6,32.7,29.98,West,270,1.0,3.0,50,0.00,,,0.00,WUHU216HW,2013-11-30 18:42:00,
2013-11-30 11:47:00,50.9,33.0,29.97,West,270,1.0,3.0,50,0.00,,,0.00,WUHU216HW,2013-11-30 18:47:00,
2013-11-30 11:52:00,51.5,33.5,29.97,West,270,2.0,5.0,50,0.00,,,0.00,WUHU216HW,2013-11-30 18:52:00,
2013-11-30 11:57:00,52.0,33.5,29.97,West,270,2.0,5.0,49,0.00,,,0.00,WUHU216HW,2013-11-30 18:57:00,
2013-11-30 12:02:00,52.2,33.6,29.97,West,270,3.0,4.0,49,0.00,,,0.00,WUHU216HW,2013-11-30 19:02:00,
2013-11-30 12:07:00,52.7,34.1,29.96,NW,315,0.0,3.0,49,0.00,,,0.00,WUHU216HW,2013-11-30 19:07:00,
2013-11-30 12:12:00,53.1,33.8,29.96,NW,315,1.0,3.0,48,0.00,,,0.00,WUHU216HW,2013-11-30 19:12:00,
2013-11-30 12:17:00,53.6,34.4,29.96,WSW,248,2.0,3.0,48,0.00,,,0.00,WUHU216HW,2013-11-30 19:17:00,
2013-11-30 12:22:00,54.0,34.7,29.95,NNW,338,3.0,3.0,48,0.00,,,0.00,WUHU216HW,2013-11-30 19:22:00,
2013-11-30 12:27:00,54.4,34.5,29.96,SW,225,1.0,3.0,47,0.00,,,0.00,WUHU216HW,2013-11-30 19:27:00,
2013-11-30 12:32:00,54.4,33.8,29.96,NE,45,1.0,3.0,46,0.00,,,0.00,WUHU216HW,2013-11-30 19:32:00,
2013-11-30 12:37:00,53.3,33.0,29.95,East,90,1.0,2.0,46,0.00,,,0.00,WUHU216HW,2013-11-30 19:37:00,
2013-11-30 12:42:00,53.3,33.0,29.95,West,270,1.0,3.0,46,0.00,,,0.00,WUHU216HW,2013-11-30 19:42:00,
2013-11-30 12:47:00,53.8,33.9,29.95,NNW,338,1.0,3.0,47,0.00,,,0.00,WUHU216HW,2013-11-30 19:47:00,
2013-11-30 12:52:00,54.2,33.8,29.94,NW,315,0.0,3.0,46,0.00,,,0.00,WUHU216HW,2013-11-30 19:52:00,
2013-11-30 12:56:00,53.8,33.4,29.94,NE,45,1.0,2.0,46,0.00,,,0.00,WUHU216HW,2013-11-30 19:56:00,
2013-11-30 13:01:00,53.8,33.4,29.94,NW,315,3.0,3.0,46,0.00,,,0.00,WUHU216HW,2013-11-30 20:01:00,
2013-11-30 13:06:00,54.2,33.8,29.94,WSW,248,1.0,3.0,46,0.00,,,0.00,WUHU216HW,2013-11-30 20:06:00,
2013-11-30 13:11:00,54.7,34.2,29.94,WSW,248,3.0,4.0,46,0.00,,,0.00,WUHU216HW,2013-11-30 20:11:00,
2013-11-30 13:17:00,55.3,35.3,29.93,North,0,0.0,4.0,47,0.00,,,0.00,WUHU216HW,2013-11-30 20:17:00,
2013-11-30 13:22:00,55.8,35.2,29.94,SSW,203,1.0,3.0,46,0.00,,,0.00,WUHU216HW,2013-11-30 20:22:00,
2013-11-30 13:27:00,56.0,34.2,29.93,WSW,248,2.0,5.0,44,0.00,,,0.00,WUHU216HW,2013-11-30 20:27:00,
2013-11-30 13:32:00,56.0,34.2,29.92,SW,225,1.0,5.0,44,0.00,,,0.00,WUHU216HW,2013-11-30 20:32:00,
2013-11-30 13:37:00,56.3,34.0,29.92,SSW,203,2.0,4.0,43,0.00,,,0.00,WUHU216HW,2013-11-30 20:37:00,
2013-11-30 13:42:00,56.5,34.2,29.92,West,270,4.0,5.0,43,0.00,,,0.00,WUHU216HW,2013-11-30 20:42:00,
2013-11-30 13:47:00,56.9,35.6,29.92,SW,225,2.0,5.0,45,0.00,,,0.00,WUHU216HW,2013-11-30 20:47:00,
2013-11-30 13:52:00,56.7,34.4,29.92,WSW,248,3.0,4.0,43,0.00,,,0.00,WUHU216HW,2013-11-30 20:52:00,
2013-11-30 13:57:00,56.9,35.1,29.92,NW,315,1.0,5.0,44,0.00,,,0.00,WUHU216HW,2013-11-30 20:57:00,
2013-11-30 14:02:00,57.2,35.5,29.92,NW,315,3.0,5.0,44,0.00,,,0.00,WUHU216HW,2013-11-30 21:02:00,
2013-11-30 14:07:00,57.2,34.8,29.92,SSW,203,0.0,4.0,43,0.00,,,0.00,WUHU216HW,2013-11-30 21:07:00,
2013-11-30 14:12:00,57.2,34.8,29.92,SSW,203,0.0,4.0,43,0.00,,,0.00,WUHU216HW,2013-11-30 21:12:00,
2013-11-30 14:17:00,57.4,34.5,29.91,SE,135,1.0,4.0,42,0.00,,,0.00,WUHU216HW,2013-11-30 21:17:00,
2013-11-30 14:22:00,57.2,34.3,29.91,East,90,0.0,4.0,42,0.00,,,0.00,WUHU216HW,2013-11-30 21:22:00,
2013-11-30 14:27:00,57.4,34.5,29.91,SW,225,1.0,6.0,42,0.00,,,0.00,WUHU216HW,2013-11-30 21:27:00,
2013-11-30 14:32:00,57.6,35.2,29.91,WNW,293,3.0,6.0,43,0.00,,,0.00,WUHU216HW,2013-11-30 21:32:00,
2013-11-30 14:37:00,57.8,34.7,29.91,WSW,248,3.0,4.0,42,0.00,,,0.00,WUHU216HW,2013-11-30 21:37:00,
2013-11-30 14:42:00,57.6,34.6,29.91,WSW,248,1.0,4.0,42,0.00,,,0.00,WUHU216HW,2013-11-30 21:42:00,
2013-11-30 14:47:00,57.2,34.8,29.91,West,270,3.0,3.0,43,0.00,,,0.00,WUHU216HW,2013-11-30 21:47:00,
2013-11-30 14:52:00,57.1,34.1,29.91,SSW,203,2.0,3.0,42,0.00,,,0.00,WUHU216HW,2013-11-30 21:52:00,
2013-11-30 14:57:00,56.9,34.5,29.91,SW,225,0.0,3.0,43,0.00,,,0.00,WUHU216HW,2013-11-30 21:57:00,
2013-11-30 15:02:00,56.9,34.5,29.91,ENE,68,0.0,5.0,43,0.00,,,0.00,WUHU216HW,2013-11-30 22:02:00,
2013-11-30 15:07:00,56.9,34.5,29.91,SE,135,1.0,5.0,43,0.00,,,0.00,WUHU216HW,2013-11-30 22:07:00,
2013-11-30 15:12:00,56.9,34.5,29.91,SW,225,1.0,4.0,43,0.00,,,0.00,WUHU216HW,2013-11-30 22:12:00,
2013-11-30 15:17:00,56.9,34.5,29.92,South,180,3.0,4.0,43,0.00,,,0.00,WUHU216HW,2013-11-30 22:17:00,
2013-11-30 15:22:00,56.7,34.4,29.91,SW,225,2.0,5.0,43,0.00,,,0.00,WUHU216HW,2013-11-30 22:22:00,
2013-11-30 15:27:00,56.5,34.2,29.91,SSW,203,2.0,5.0,43,0.00,,,0.00,WUHU216HW,2013-11-30 22:27:00,
2013-11-30 15:32:00,56.5,34.7,29.91,SSW,203,1.0,3.0,44,0.00,,,0.00,WUHU216HW,2013-11-30 22:32:00,
2013-11-30 15:37:00,56.3,34.0,29.91,SW,225,2.0,3.0,43,0.00,,,0.00,WUHU216HW,2013-11-30 22:37:00,
2013-11-30 15:42:00,56.2,34.4,29.91,SSW,203,1.0,3.0,44,0.00,,,0.00,WUHU216HW,2013-11-30 22:42:00,
2013-11-30 15:47:00,55.8,34.1,29.91,SE,135,0.0,4.0,44,0.00,,,0.00,WUHU216HW,2013-11-30 22:47:00,
2013-11-30 15:52:00,55.4,33.8,29.91,South,180,0.0,4.0,44,0.00,,,0.00,WUHU216HW,2013-11-30 22:52:00,
2013-11-30 15:57:00,55.3,34.1,29.91,SSW,203,2.0,3.0,45,0.00,,,0.00,WUHU216HW,2013-11-30 22:57:00,
2013-11-30 16:02:00,55.3,34.1,29.91,SW,225,3.0,3.0,45,0.00,,,0.00,WUHU216HW,2013-11-30 23:02:00,
2013-11-30 16:07:00,55.1,33.9,29.91,SSW,203,1.0,4.0,45,0.00,,,0.00,WUHU216HW,2013-11-30 23:07:00,
2013-11-30 16:12:00,54.7,33.7,29.91,South,180,2.0,4.0,45,0.00,,,0.00,WUHU216HW,2013-11-30 23:12:00,
2013-11-30 16:17:00,54.4,33.3,29.91,SSE,158,3.0,4.0,45,0.00,,,0.00,WUHU216HW,2013-11-30 23:17:00,
2013-11-30 16:22:00,54.4,33.8,29.91,South,180,0.0,4.0,46,0.00,,,0.00,WUHU216HW,2013-11-30 23:22:00,
2013-11-30 16:27:00,54.0,33.6,29.91,SSW,203,1.0,3.0,46,0.00,,,0.00,WUHU216HW,2013-11-30 23:27:00,
2013-11-30 16:32:00,54.0,33.6,29.90,SSW,203,2.0,3.0,46,0.00,,,0.00,WUHU216HW,2013-11-30 23:32:00,
2013-11-30 16:37:00,53.6,33.2,29.90,SSW,203,1.0,3.0,46,0.00,,,0.00,WUHU216HW,2013-11-30 23:37:00,
2013-11-30 16:42:00,53.3,33.0,29.91,SSW,203,1.0,3.0,46,0.00,,,0.00,WUHU216HW,2013-11-30 23:42:00,
2013-11-30 16:47:00,52.9,32.6,29.91,SSW,203,1.0,3.0,46,0.00,,,0.00,WUHU216HW,2013-11-30 23:47:00,
2013-11-30 16:52:00,52.6,32.9,29.91,SSW,203,1.0,4.0,47,0.00,,,0.00,WUHU216HW,2013-11-30 23:52:00,
2013-11-30 16:57:00,52.2,32.5,29.91,SSW,203,2.0,4.0,47,0.00,,,0.00,WUHU216HW,2013-11-30 23:57:00,
2013-11-30 17:02:00,51.8,32.1,29.91,South,180,1.0,3.0,47,0.00,,,0.00,WUHU216HW,2013-12-01 00:02:00,
2013-11-30 17:07:00,51.5,32.4,29.91,South,180,0.0,3.0,48,0.00,,,0.00,WUHU216HW,2013-12-01 00:07:00,
2013-11-30 17:12:00,51.1,32.0,29.92,SSE,158,0.0,3.0,48,0.00,,,0.00,WUHU216HW,2013-12-01 00:12:00,
2013-11-30 17:17:00,50.8,32.3,29.92,SSE,158,0.0,3.0,49,0.00,,,0.00,WUHU216HW,2013-12-01 00:17:00,
2013-11-30 17:22:00,50.4,32.0,29.92,South,180,1.0,3.0,49,0.00,,,0.00,WUHU216HW,2013-12-01 00:22:00,
2013-11-30 17:27:00,50.2,31.9,29.92,SSE,158,0.0,2.0,49,0.00,,,0.00,WUHU216HW,2013-12-01 00:27:00,
2013-11-30 17:32:00,49.9,32.0,29.92,SSE,158,0.0,1.0,50,0.00,,,0.00,WUHU216HW,2013-12-01 00:32:00,
2013-11-30 17:37:00,49.5,31.7,29.92,ESE,113,0.0,1.0,50,0.00,,,0.00,WUHU216HW,2013-12-01 00:37:00,
2013-11-30 17:42:00,49.1,31.3,29.92,East,90,0.0,1.0,50,0.00,,,0.00,WUHU216HW,2013-12-01 00:42:00,
2013-11-30 17:47:00,49.0,31.6,29.92,ESE,113,0.0,1.0,51,0.00,,,0.00,WUHU216HW,2013-12-01 00:47:00,
2013-11-30 17:52:00,48.6,31.2,29.92,ESE,113,0.0,0.0,51,0.00,,,0.00,WUHU216HW,2013-12-01 00:52:00,
2013-11-30 17:57:00,48.2,31.3,29.92,East,90,0.0,1.0,52,0.00,,,0.00,WUHU216HW,2013-12-01 00:57:00,
2013-11-30 18:02:00,47.9,31.1,29.92,East,90,1.0,1.0,52,0.00,,,0.00,WUHU216HW,2013-12-01 01:02:00,
2013-11-30 18:07:00,47.7,31.3,29.92,East,90,1.0,1.0,53,0.00,,,0.00,WUHU216HW,2013-12-01 01:07:00,
2013-11-30 18:12:00,47.5,31.1,29.92,ENE,68,2.0,2.0,53,0.00,,,0.00,WUHU216HW,2013-12-01 01:12:00,
2013-11-30 18:17:00,47.2,31.3,29.92,ENE,68,2.0,3.0,54,0.00,,,0.00,WUHU216HW,2013-12-01 01:17:00,
2013-11-30 18:22:00,46.8,31.0,29.93,East,90,0.0,3.0,54,0.00,,,0.00,WUHU216HW,2013-12-01 01:22:00,
2013-11-30 18:27:00,46.6,30.8,29.93,East,90,1.0,2.0,54,0.00,,,0.00,WUHU216HW,2013-12-01 01:27:00,
2013-11-30 18:32:00,46.4,31.1,29.93,East,90,1.0,2.0,55,0.00,,,0.00,WUHU216HW,2013-12-01 01:32:00,
2013-11-30 18:37:00,46.4,31.1,29.93,East,90,1.0,2.0,55,0.00,,,0.00,WUHU216HW,2013-12-01 01:37:00,
2013-11-30 18:42:00,46.1,30.7,29.94,ESE,113,0.0,1.0,55,0.00,,,0.00,WUHU216HW,2013-12-01 01:42:00,
2013-11-30 18:43:00,46.1,30.7,29.93,ESE,113,0.0,1.0,55,0.00,,,0.00,WUHU216HW,2013-12-01 01:43:00,
2013-11-30 18:48:00,45.7,30.9,29.93,ESE,113,1.0,2.0,56,0.00,,,0.00,WUHU216HW,2013-12-01 01:48:00,
2013-11-30 18:53:00,45.5,30.7,29.94,East,90,1.0,2.0,56,0.00,,,0.00,WUHU216HW,2013-12-01 01:53:00,
2013-11-30 18:58:00,45.2,30.8,29.94,ENE,68,1.0,1.0,57,0.00,,,0.00,WUHU216HW,2013-12-01 01:58:00,
2013-11-30 19:03:00,45.0,30.7,29.94,ENE,68,0.0,1.0,57,0.00,,,0.00,WUHU216HW,2013-12-01 02:03:00,
2013-11-30 19:08:00,44.8,30.5,29.94,ENE,68,1.0,1.0,57,0.00,,,0.00,WUHU216HW,2013-12-01 02:08:00,
2013-11-30 19:13:00,44.6,30.3,29.94,ENE,68,1.0,1.0,57,0.00,,,0.00,WUHU216HW,2013-12-01 02:13:00,
2013-11-30 19:18:00,44.3,30.4,29.93,ENE,68,1.0,2.0,58,0.00,,,0.00,WUHU216HW,2013-12-01 02:18:00,
2013-11-30 19:23:00,44.3,30.9,29.94,ENE,68,0.0,2.0,59,0.00,,,0.00,WUHU216HW,2013-12-01 02:23:00,
2013-11-30 19:28:00,44.1,31.1,29.94,ENE,68,0.0,1.0,60,0.00,,,0.00,WUHU216HW,2013-12-01 02:28:00,
2013-11-30 19:33:00,44.1,30.7,29.94,ENE,68,0.0,0.0,59,0.00,,,0.00,WUHU216HW,2013-12-01 02:33:00,
2013-11-30 19:38:00,43.7,30.3,29.93,NNE,23,0.0,0.0,59,0.00,,,0.00,WUHU216HW,2013-12-01 02:38:00,
2013-11-30 19:43:00,43.6,30.2,29.93,NW,315,0.0,0.0,59,0.00,,,0.00,WUHU216HW,2013-12-01 02:43:00,
2013-11-30 19:48:00,43.4,30.0,29.94,NNW,338,0.0,0.0,59,0.00,,,0.00,WUHU216HW,2013-12-01 02:48:00,
2013-11-30 19:53:00,43.2,30.2,29.93,NNW,338,0.0,0.0,60,0.00,,,0.00,WUHU216HW,2013-12-01 02:53:00,
2013-11-30 19:58:00,43.2,30.6,29.94,NNE,23,0.0,0.0,61,0.00,,,0.00,WUHU216HW,2013-12-01 02:58:00,
2013-11-30 20:03:00,42.8,30.7,29.94,NNE,23,0.0,0.0,62,0.00,,,0.00,WUHU216HW,2013-12-01 03:03:00,
2013-11-30 20:08:00,42.7,30.5,29.94,SE,135,0.0,0.0,62,0.00,,,0.00,WUHU216HW,2013-12-01 03:08:00,
2013-11-30 20:13:00,42.3,30.2,29.94,SSE,158,0.0,0.0,62,0.00,,,0.00,WUHU216HW,2013-12-01 03:13:00,
2013-11-30 20:18:00,42.1,30.4,29.94,SSE,158,0.0,0.0,63,0.00,,,0.00,WUHU216HW,2013-12-01 03:18:00,
2013-11-30 20:23:00,41.8,30.1,29.94,ESE,113,0.0,0.0,63,0.00,,,0.00,WUHU216HW,2013-12-01 03:23:00,
2013-11-30 20:28:00,41.6,31.1,29.94,East,90,1.0,1.0,66,0.00,,,0.00,WUHU216HW,2013-12-01 03:28:00,
2013-11-30 20:33:00,41.4,30.9,29.94,East,90,0.0,1.0,66,0.00,,,0.00,WUHU216HW,2013-12-01 03:33:00,
2013-11-30 20:38:00,41.4,30.5,29.94,East,90,0.0,1.0,65,0.00,,,0.00,WUHU216HW,2013-12-01 03:38:00,
2013-11-30 20:43:00,41.2,30.0,29.94,East,90,0.0,0.0,64,0.00,,,0.00,WUHU216HW,2013-12-01 03:43:00,
2013-11-30 20:48:00,41.2,30.0,29.94,NE,45,0.0,0.0,64,0.00,,,0.00,WUHU216HW,2013-12-01 03:48:00,
2013-11-30 20:53:00,41.2,31.1,29.94,NE,45,0.0,0.0,67,0.00,,,0.00,WUHU216HW,2013-12-01 03:53:00,
2013-11-30 20:58:00,41.0,30.9,29.94,SE,135,1.0,1.0,67,0.00,,,0.00,WUHU216HW,2013-12-01 03:58:00,
2013-11-30 21:03:00,40.9,30.0,29.95,SSE,158,0.0,1.0,65,0.00,,,0.00,WUHU216HW,2013-12-01 04:03:00,
2013-11-30 21:08:00,40.7,29.8,29.94,SE,135,0.0,1.0,65,0.00,,,0.00,WUHU216HW,2013-12-01 04:08:00,
2013-11-30 21:12:00,40.5,30.0,29.94,ENE,68,0.0,0.0,66,0.00,,,0.00,WUHU216HW,2013-12-01 04:12:00,
2013-11-30 21:18:00,40.3,29.8,29.94,NE,45,0.0,1.0,66,0.00,,,0.00,WUHU216HW,2013-12-01 04:18:00,
2013-11-30 21:23:00,40.1,30.0,29.94,NE,45,0.0,1.0,67,0.00,,,0.00,WUHU216HW,2013-12-01 04:23:00,
2013-11-30 21:28:00,40.0,30.3,29.95,ENE,68,0.0,0.0,68,0.00,,,0.00,WUHU216HW,2013-12-01 04:28:00,
2013-11-30 21:32:00,40.0,30.3,29.95,East,90,1.0,1.0,68,0.00,,,0.00,WUHU216HW,2013-12-01 04:32:00,
2013-11-30 21:37:00,39.8,29.6,29.95,East,90,0.0,1.0,67,0.00,,,0.00,WUHU216HW,2013-12-01 04:37:00,
2013-11-30 21:42:00,39.8,29.6,29.95,SE,135,0.0,1.0,67,0.00,,,0.00,WUHU216HW,2013-12-01 04:42:00,
2013-11-30 21:47:00,39.6,29.4,29.96,SSE,158,0.0,1.0,67,0.00,,,0.00,WUHU216HW,2013-12-01 04:47:00,
2013-11-30 21:52:00,39.4,29.7,29.96,SE,135,0.0,0.0,68,0.00,,,0.00,WUHU216HW,2013-12-01 04:52:00,
2013-11-30 21:57:00,39.2,29.5,29.96,SE,135,0.0,0.0,68,0.00,,,0.00,WUHU216HW,2013-12-01 04:57:00,
2013-11-30 22:01:00,39.1,29.4,29.96,ESE,113,0.0,0.0,68,0.00,,,0.00,WUHU216HW,2013-12-01 05:01:00,
2013-11-30 22:06:00,39.1,29.4,29.96,NE,45,0.0,1.0,68,0.00,,,0.00,WUHU216HW,2013-12-01 05:06:00,
2013-11-30 22:11:00,38.9,29.2,29.96,NE,45,0.0,1.0,68,0.00,,,0.00,WUHU216HW,2013-12-01 05:11:00,
2013-11-30 22:16:00,38.9,29.5,29.96,NNE,23,0.0,1.0,69,0.00,,,0.00,WUHU216HW,2013-12-01 05:16:00,
2013-11-30 22:21:00,38.9,30.2,29.96,NE,45,0.0,1.0,71,0.00,,,0.00,WUHU216HW,2013-12-01 05:21:00,
2013-11-30 22:26:00,39.1,30.1,29.95,NE,45,1.0,1.0,70,0.00,,,0.00,WUHU216HW,2013-12-01 05:26:00,
2013-11-30 22:31:00,39.1,30.4,29.95,NE,45,1.0,1.0,71,0.00,,,0.00,WUHU216HW,2013-12-01 05:31:00,
2013-11-30 22:36:00,39.2,31.0,29.95,ENE,68,1.0,1.0,72,0.00,,,0.00,WUHU216HW,2013-12-01 05:36:00,
2013-11-30 22:41:00,39.2,30.6,29.96,East,90,0.0,1.0,71,0.00,,,0.00,WUHU216HW,2013-12-01 05:41:00,
2013-11-30 22:46:00,39.2,30.6,29.96,East,90,0.0,0.0,71,0.00,,,0.00,WUHU216HW,2013-12-01 05:46:00,
2013-11-30 22:51:00,39.1,29.7,29.95,SE,135,0.0,1.0,69,0.00,,,0.00,WUHU216HW,2013-12-01 05:51:00,
2013-11-30 22:56:00,38.7,29.8,29.95,SE,135,0.0,1.0,70,0.00,,,0.00,WUHU216HW,2013-12-01 05:56:00,
2013-11-30 23:01:00,38.5,29.6,29.96,SE,135,0.0,0.0,70,0.00,,,0.00,WUHU216HW,2013-12-01 06:01:00,
2013-11-30 23:06:00,38.3,29.4,29.96,NW,315,0.0,1.0,70,0.00,,,0.00,WUHU216HW,2013-12-01 06:06:00,
2013-11-30 23:11:00,38.2,29.6,29.96,NW,315,0.0,1.0,71,0.00,,,0.00,WUHU216HW,2013-12-01 06:11:00,
2013-11-30 23:16:00,38.2,30.0,29.96,ENE,68,0.0,0.0,72,0.00,,,0.00,WUHU216HW,2013-12-01 06:16:00,
2013-11-30 23:21:00,38.0,29.4,29.96,ENE,68,0.0,1.0,71,0.00,,,0.00,WUHU216HW,2013-12-01 06:21:00,
2013-11-30 23:26:00,38.0,29.4,29.96,ENE,68,0.0,1.0,71,0.00,,,0.00,WUHU216HW,2013-12-01 06:26:00,
2013-11-30 23:31:00,37.8,29.3,29.96,NNE,23,0.0,0.0,71,0.00,,,0.00,WUHU216HW,2013-12-01 06:31:00,
2013-11-30 23:36:00,38.0,30.1,29.96,NNE,23,0.0,0.0,73,0.00,,,0.00,WUHU216HW,2013-12-01 06:36:00,
2013-11-30 23:41:00,37.8,29.6,29.96,NNE,23,0.0,0.0,72,0.00,,,0.00,WUHU216HW,2013-12-01 06:41:00,
2013-11-30 23:46:00,37.6,29.4,29.96,SE,135,0.0,0.0,72,0.00,,,0.00,WUHU216HW,2013-12-01 06:46:00,
2013-11-30 23:51:00,37.4,29.0,29.97,SE,135,0.0,0.0,71,0.00,,,0.00,WUHU216HW,2013-12-01 06:51:00,
2013-11-30 23:56:00,37.3,28.8,29.96,SE,135,0.0,0.0,71,0.00,,,0.00,WUHU216HW,2013-12-01 06:56:00,